Time,TemperatureF,DewpointF,PressureIn,WindDirection,WindDirectionDegrees,WindSpeedMPH,WindSpeedGustMPH,Humidity,HourlyPrecipIn,Conditions,Clouds,dailyrainin,SoftwareType,DateUTC
2013-02-06 00:03:00,44.3,41.6,29.64,ESE,113,1.5,2.2,90,0.00,,,0.00,WUHU216HW,2013-02-06 08:03:00,
2013-02-06 00:10:00,44.3,41.6,29.64,ESE,113,0.8,3.8,90,0.00,,,0.00,WUHU216HW,2013-02-06 08:10:00,
2013-02-06 00:15:00,44.3,41.6,29.64,East,90,3.4,3.8,90,0.00,,,0.00,WUHU216HW,2013-02-06 08:15:00,
2013-02-06 00:21:00,44.3,41.6,29.64,ESE,113,1.1,3.4,90,0.00,,,0.00,WUHU216HW,2013-02-06 08:21:00,
2013-02-06 00:26:00,44.3,41.6,29.64,ESE,113,0.2,1.1,90,0.00,,,0.00,WUHU216HW,2013-02-06 08:26:00,
2013-02-06 00:31:00,44.3,41.6,29.64,ESE,113,1.4,1.6,90,0.00,,,0.00,WUHU216HW,2013-02-06 08:31:00,
2013-02-06 00:36:00,44.3,41.6,29.65,ESE,123,1.2,1.8,90,0.00,,,0.00,WUHU216HW,2013-02-06 08:36:00,
2013-02-06 00:41:00,44.3,41.6,29.65,ESE,104,3.9,4.7,90,0.00,,,0.00,WUHU216HW,2013-02-06 08:41:00,
2013-02-06 00:46:00,44.3,41.6,29.65,East,90,4.9,4.9,90,0.00,,,0.00,WUHU216HW,2013-02-06 08:46:00,
2013-02-06 00:51:00,44.3,41.6,29.65,SE,135,0.7,4.9,90,0.00,,,0.00,WUHU216HW,2013-02-06 08:51:00,
2013-02-06 00:57:00,44.3,41.6,29.65,East,90,2.5,2.7,90,0.00,,,0.00,WUHU216HW,2013-02-06 08:57:00,
2013-02-06 01:02:00,44.3,41.6,29.65,ESE,113,3.4,3.4,90,0.00,,,0.00,WUHU216HW,2013-02-06 09:02:00,
2013-02-06 01:07:00,44.3,41.6,29.65,ESE,113,0.9,3.4,90,0.00,,,0.00,WUHU216HW,2013-02-06 09:07:00,
2013-02-06 01:12:00,44.1,41.4,29.66,SE,135,2.2,3.8,90,0.00,,,0.00,WUHU216HW,2013-02-06 09:12:00,
2013-02-06 01:18:00,44.1,41.4,29.66,ESE,113,3.1,3.8,90,0.00,,,0.00,WUHU216HW,2013-02-06 09:18:00,
2013-02-06 01:23:00,44.1,41.4,29.66,SE,135,0.4,4.0,90,0.00,,,0.00,WUHU216HW,2013-02-06 09:23:00,
2013-02-06 01:28:00,43.9,41.0,29.66,East,90,0.9,4.0,89,0.00,,,0.00,WUHU216HW,2013-02-06 09:28:00,
2013-02-06 01:33:00,44.1,41.1,29.66,SE,128,1.5,3.8,89,0.00,,,0.00,WUHU216HW,2013-02-06 09:33:00,
2013-02-06 01:38:00,44.1,41.1,29.66,SE,135,2.0,3.1,89,0.00,,,0.00,WUHU216HW,2013-02-06 09:38:00,
2013-02-06 01:42:00,44.1,41.1,29.67,East,82,2.6,3.4,89,0.00,,,0.00,WUHU216HW,2013-02-06 09:42:00,
2013-02-06 01:49:00,44.1,41.1,29.67,SE,135,1.8,3.4,89,0.00,,,0.00,WUHU216HW,2013-02-06 09:49:00,
2013-02-06 01:54:00,44.1,41.1,29.67,South,180,2.7,2.7,89,0.00,,,0.00,WUHU216HW,2013-02-06 09:54:00,
2013-02-06 01:59:00,44.1,41.1,29.67,SE,135,1.5,2.7,89,0.00,,,0.00,WUHU216HW,2013-02-06 09:59:00,
2013-02-06 02:04:00,44.1,41.1,29.67,SE,135,1.1,2.5,89,0.00,,,0.00,WUHU216HW,2013-02-06 10:04:00,
2013-02-06 02:10:00,44.1,41.1,29.68,SE,135,1.4,5.8,89,0.00,,,0.00,WUHU216HW,2013-02-06 10:10:00,
2013-02-06 02:15:00,44.1,41.1,29.68,SE,129,4.8,7.2,89,0.00,,,0.00,WUHU216HW,2013-02-06 10:15:00,
2013-02-06 02:20:00,44.3,41.3,29.68,ESE,113,1.1,7.2,89,0.00,,,0.00,WUHU216HW,2013-02-06 10:20:00,
2013-02-06 02:25:00,44.3,41.3,29.68,ESE,119,1.3,2.5,89,0.01,,,0.02,WUHU216HW,2013-02-06 10:25:00,
2013-02-06 02:30:00,44.3,41.3,29.68,ESE,113,1.6,1.8,89,0.01,,,0.02,WUHU216HW,2013-02-06 10:30:00,
2013-02-06 02:35:00,44.3,41.3,29.69,ESE,113,0.2,2.7,89,0.01,,,0.02,WUHU216HW,2013-02-06 10:35:00,
2013-02-06 02:41:00,44.1,41.1,29.68,East,90,1.8,4.7,89,0.01,,,0.02,WUHU216HW,2013-02-06 10:41:00,
2013-02-06 02:46:00,44.1,41.1,29.68,SE,135,0.7,4.7,89,0.01,,,0.02,WUHU216HW,2013-02-06 10:46:00,
2013-02-06 02:51:00,44.1,41.1,29.69,ESE,109,1.5,3.6,89,0.01,,,0.02,WUHU216HW,2013-02-06 10:51:00,
2013-02-06 02:56:00,44.1,41.1,29.69,ESE,113,2.5,4.0,89,0.01,,,0.02,WUHU216HW,2013-02-06 10:56:00,
2013-02-06 03:02:00,44.1,41.4,29.69,ESE,113,3.4,4.0,90,0.01,,,0.02,WUHU216HW,2013-02-06 11:02:00,
2013-02-06 03:07:00,44.1,41.4,29.69,SE,124,1.9,4.5,90,0.01,,,0.02,WUHU216HW,2013-02-06 11:07:00,
2013-02-06 03:12:00,44.1,41.4,29.69,East,90,3.1,4.5,90,0.01,,,0.02,WUHU216HW,2013-02-06 11:12:00,
2013-02-06 03:17:00,44.1,41.4,29.69,ESE,113,5.6,5.6,90,0.01,,,0.02,WUHU216HW,2013-02-06 11:17:00,
2013-02-06 03:22:00,44.1,41.4,29.69,SE,137,2.5,6.3,90,0.00,,,0.02,WUHU216HW,2013-02-06 11:22:00,
2013-02-06 03:27:00,44.1,41.4,29.69,ESE,115,1.8,6.3,90,0.00,,,0.02,WUHU216HW,2013-02-06 11:27:00,
2013-02-06 03:33:00,44.1,41.4,29.69,ESE,113,1.2,4.5,90,0.00,,,0.02,WUHU216HW,2013-02-06 11:33:00,
2013-02-06 03:38:00,43.9,41.2,29.69,ESE,103,3.0,3.4,90,0.00,,,0.02,WUHU216HW,2013-02-06 11:38:00,
2013-02-06 03:43:00,43.9,41.2,29.69,East,96,0.8,3.4,90,0.00,,,0.02,WUHU216HW,2013-02-06 11:43:00,
2013-02-06 03:50:00,43.9,41.2,29.70,ESE,104,2.3,4.3,90,0.00,,,0.02,WUHU216HW,2013-02-06 11:50:00,
2013-02-06 03:55:00,43.9,41.2,29.70,SE,134,2.0,4.3,90,0.00,,,0.02,WUHU216HW,2013-02-06 11:55:00,
2013-02-06 04:00:00,43.9,41.2,29.70,ESE,105,0.3,3.8,90,0.00,,,0.02,WUHU216HW,2013-02-06 12:00:00,
2013-02-06 04:05:00,43.9,41.2,29.70,ESE,113,0.9,1.1,90,0.00,,,0.02,WUHU216HW,2013-02-06 12:05:00,
2013-02-06 04:10:00,43.9,41.0,29.70,SSE,158,1.6,1.6,89,0.00,,,0.02,WUHU216HW,2013-02-06 12:10:00,
2013-02-06 04:16:00,43.9,41.0,29.70,East,90,4.7,4.7,89,0.00,,,0.02,WUHU216HW,2013-02-06 12:16:00,
2013-02-06 04:21:00,43.9,41.0,29.71,East,99,1.4,4.7,89,0.00,,,0.02,WUHU216HW,2013-02-06 12:21:00,
2013-02-06 04:26:00,43.9,41.0,29.71,East,90,2.7,3.1,89,0.00,,,0.02,WUHU216HW,2013-02-06 12:26:00,
2013-02-06 04:31:00,43.9,41.0,29.71,East,90,3.4,3.4,89,0.00,,,0.02,WUHU216HW,2013-02-06 12:31:00,
2013-02-06 04:36:00,44.1,41.1,29.72,ESE,113,0.4,3.4,89,0.00,,,0.02,WUHU216HW,2013-02-06 12:36:00,
2013-02-06 04:42:00,44.1,41.1,29.72,ESE,118,0.8,2.7,89,0.00,,,0.02,WUHU216HW,2013-02-06 12:42:00,
2013-02-06 04:47:00,44.1,41.1,29.72,East,90,1.5,2.7,89,0.00,,,0.02,WUHU216HW,2013-02-06 12:47:00,
2013-02-06 04:52:00,44.1,41.1,29.72,East,100,3.3,4.5,89,0.00,,,0.02,WUHU216HW,2013-02-06 12:52:00,
2013-02-06 04:57:00,44.1,41.1,29.72,NE,45,1.8,4.5,89,0.00,,,0.02,WUHU216HW,2013-02-06 12:57:00,
2013-02-06 05:02:00,44.1,41.1,29.72,ESE,113,3.8,3.8,89,0.00,,,0.02,WUHU216HW,2013-02-06 13:02:00,
2013-02-06 05:08:00,44.1,41.1,29.72,ESE,113,1.6,4.3,89,0.00,,,0.02,WUHU216HW,2013-02-06 13:08:00,
2013-02-06 05:13:00,44.1,41.1,29.72,ESE,121,0.6,4.3,89,0.00,,,0.02,WUHU216HW,2013-02-06 13:13:00,
2013-02-06 05:18:00,44.1,40.8,29.72,SE,135,1.1,4.0,88,0.00,,,0.02,WUHU216HW,2013-02-06 13:18:00,
2013-02-06 05:23:00,44.1,40.8,29.72,South,174,1.6,4.3,88,0.00,,,0.02,WUHU216HW,2013-02-06 13:23:00,
2013-02-06 05:28:00,44.1,40.8,29.72,ESE,112,3.7,4.3,88,0.00,,,0.02,WUHU216HW,2013-02-06 13:28:00,
2013-02-06 05:34:00,44.1,40.8,29.72,East,90,1.3,4.0,88,0.00,,,0.02,WUHU216HW,2013-02-06 13:34:00,
2013-02-06 05:39:00,44.1,40.8,29.72,ENE,68,3.6,3.6,88,0.00,,,0.02,WUHU216HW,2013-02-06 13:39:00,
2013-02-06 05:44:00,44.1,40.8,29.72,NE,49,0.6,3.6,88,0.00,,,0.02,WUHU216HW,2013-02-06 13:44:00,
2013-02-06 05:49:00,43.9,40.6,29.72,ESE,113,3.4,3.4,88,0.00,,,0.02,WUHU216HW,2013-02-06 13:49:00,
2013-02-06 05:54:00,43.9,40.6,29.72,ESE,113,0.6,3.6,88,0.00,,,0.02,WUHU216HW,2013-02-06 13:54:00,
2013-02-06 06:00:00,43.9,40.6,29.72,ESE,113,3.4,4.3,88,0.00,,,0.02,WUHU216HW,2013-02-06 14:00:00,
2013-02-06 06:05:00,43.9,40.6,29.72,SE,135,1.1,4.3,88,0.00,,,0.02,WUHU216HW,2013-02-06 14:05:00,
2013-02-06 06:10:00,43.9,40.6,29.72,SE,135,1.1,2.5,88,0.00,,,0.02,WUHU216HW,2013-02-06 14:10:00,
2013-02-06 06:15:00,43.9,40.6,29.72,ESE,108,2.5,3.8,88,0.00,,,0.02,WUHU216HW,2013-02-06 14:15:00,
2013-02-06 06:20:00,43.9,40.6,29.72,SE,129,3.1,4.7,88,0.00,,,0.02,WUHU216HW,2013-02-06 14:20:00,
2013-02-06 06:25:00,43.9,40.6,29.72,SE,135,0.9,4.7,88,0.00,,,0.02,WUHU216HW,2013-02-06 14:25:00,
2013-02-06 06:31:00,44.1,40.8,29.73,ESE,113,3.4,3.4,88,0.00,,,0.02,WUHU216HW,2013-02-06 14:31:00,
2013-02-06 06:36:00,43.9,40.6,29.73,ESE,113,2.5,4.7,88,0.00,,,0.02,WUHU216HW,2013-02-06 14:36:00,
2013-02-06 06:41:00,44.1,40.8,29.72,ESE,113,1.8,4.7,88,0.00,,,0.02,WUHU216HW,2013-02-06 14:41:00,
2013-02-06 06:46:00,44.1,40.8,29.73,SSE,158,1.3,3.1,88,0.00,,,0.02,WUHU216HW,2013-02-06 14:46:00,
2013-02-06 06:51:00,44.1,40.8,29.73,SE,135,2.3,3.8,88,0.00,,,0.02,WUHU216HW,2013-02-06 14:51:00,
2013-02-06 06:57:00,44.1,40.8,29.73,ESE,121,1.5,3.8,88,0.00,,,0.02,WUHU216HW,2013-02-06 14:57:00,
2013-02-06 07:02:00,43.9,40.6,29.73,SE,135,1.1,1.8,88,0.00,,,0.02,WUHU216HW,2013-02-06 15:02:00,
2013-02-06 07:07:00,43.9,40.6,29.73,SE,135,1.3,2.9,88,0.00,,,0.02,WUHU216HW,2013-02-06 15:07:00,
2013-02-06 07:12:00,43.7,40.4,29.73,East,90,2.0,2.9,88,0.00,,,0.02,WUHU216HW,2013-02-06 15:12:00,
2013-02-06 07:17:00,43.7,40.4,29.74,SE,135,2.2,3.8,88,0.00,,,0.02,WUHU216HW,2013-02-06 15:17:00,
2013-02-06 07:23:00,43.6,40.2,29.74,East,90,2.2,2.2,88,0.00,,,0.02,WUHU216HW,2013-02-06 15:23:00,
2013-02-06 07:30:00,43.6,40.2,29.73,ESE,113,0.2,2.5,88,0.00,,,0.02,WUHU216HW,2013-02-06 15:30:00,
2013-02-06 07:38:00,43.4,40.1,29.73,SE,135,0.9,4.5,88,0.00,,,0.02,WUHU216HW,2013-02-06 15:38:00,
2013-02-06 07:44:00,43.2,39.6,29.73,North,0,0.9,1.8,87,0.00,,,0.02,WUHU216HW,2013-02-06 15:44:00,
2013-02-06 07:50:00,43.0,39.4,29.74,SE,135,0.3,1.6,87,0.00,,,0.02,WUHU216HW,2013-02-06 15:50:00,
2013-02-06 07:55:00,42.8,39.3,29.74,SE,135,2.2,2.2,87,0.00,,,0.02,WUHU216HW,2013-02-06 15:55:00,
2013-02-06 08:00:00,43.0,39.7,29.74,SE,135,0.6,2.5,88,0.00,,,0.02,WUHU216HW,2013-02-06 16:00:00,
2013-02-06 08:06:00,42.8,39.5,29.74,SE,135,0.8,3.6,88,0.00,,,0.02,WUHU216HW,2013-02-06 16:06:00,
2013-02-06 08:11:00,43.0,39.7,29.74,ESE,107,1.5,3.6,88,0.00,,,0.02,WUHU216HW,2013-02-06 16:11:00,
2013-02-06 08:16:00,42.8,39.5,29.74,ESE,117,0.4,2.0,88,0.00,,,0.02,WUHU216HW,2013-02-06 16:16:00,
2013-02-06 08:21:00,43.0,39.7,29.74,ESE,113,3.4,3.4,88,0.00,,,0.02,WUHU216HW,2013-02-06 16:21:00,
2013-02-06 08:25:00,43.2,39.9,29.74,ESE,113,0.4,4.0,88,0.00,,,0.02,WUHU216HW,2013-02-06 16:25:00,
2013-02-06 08:32:00,43.4,40.1,29.74,ESE,113,1.6,6.5,88,0.00,,,0.02,WUHU216HW,2013-02-06 16:32:00,
2013-02-06 08:39:00,43.7,40.4,29.75,ESE,113,1.4,2.7,88,0.00,,,0.02,WUHU216HW,2013-02-06 16:39:00,
2013-02-06 08:41:00,43.7,40.4,29.74,ESE,113,1.1,2.7,88,0.00,,,0.02,WUHU216HW,2013-02-06 16:41:00,
2013-02-06 08:45:00,43.7,40.4,29.75,SSE,158,1.1,3.8,88,0.00,,,0.02,WUHU216HW,2013-02-06 16:45:00,
2013-02-06 08:47:00,43.9,40.6,29.75,ESE,113,1.8,3.8,88,0.00,,,0.02,WUHU216HW,2013-02-06 16:47:00,
2013-02-06 08:53:00,44.1,40.8,29.75,ESE,113,1.9,3.4,88,0.00,,,0.02,WUHU216HW,2013-02-06 16:53:00,
2013-02-06 09:02:00,44.3,41.3,29.75,ESE,113,3.1,4.0,89,0.00,,,0.02,WUHU216HW,2013-02-06 17:02:00,
2013-02-06 09:08:00,44.6,41.3,29.75,SE,135,1.6,3.8,88,0.00,,,0.02,WUHU216HW,2013-02-06 17:08:00,
2013-02-06 09:12:00,44.6,41.3,29.75,East,90,7.6,7.6,88,0.00,,,0.02,WUHU216HW,2013-02-06 17:12:00,
2013-02-06 09:21:00,44.8,41.5,29.75,East,90,3.4,7.6,88,0.00,,,0.02,WUHU216HW,2013-02-06 17:21:00,
2013-02-06 09:29:00,45.0,41.7,29.75,ESE,113,6.3,6.3,88,0.00,,,0.02,WUHU216HW,2013-02-06 17:29:00,
2013-02-06 09:36:00,45.4,42.0,29.75,SE,139,4.1,6.3,88,0.00,,,0.02,WUHU216HW,2013-02-06 17:36:00,
2013-02-06 09:40:00,45.4,41.8,29.75,ESE,113,5.8,6.3,87,0.00,,,0.02,WUHU216HW,2013-02-06 17:40:00,
2013-02-06 09:42:00,45.4,41.8,29.75,East,90,5.1,5.8,87,0.00,,,0.02,WUHU216HW,2013-02-06 17:42:00,
2013-02-06 09:49:00,45.4,41.8,29.75,ESE,113,5.4,5.4,87,0.00,,,0.02,WUHU216HW,2013-02-06 17:49:00,
2013-02-06 09:54:00,45.4,41.8,29.75,ESE,120,2.8,5.4,87,0.00,,,0.02,WUHU216HW,2013-02-06 17:54:00,
2013-02-06 09:59:00,45.5,42.0,29.75,ESE,118,2.5,4.3,87,0.00,,,0.02,WUHU216HW,2013-02-06 17:59:00,
2013-02-06 10:04:00,45.5,42.0,29.75,ENE,68,4.0,4.3,87,0.00,,,0.02,WUHU216HW,2013-02-06 18:04:00,
2013-02-06 10:09:00,45.7,42.1,29.75,SE,135,1.6,4.0,87,0.00,,,0.02,WUHU216HW,2013-02-06 18:09:00,
2013-02-06 10:14:00,45.9,42.3,29.75,SE,135,1.3,2.5,87,0.00,,,0.02,WUHU216HW,2013-02-06 18:14:00,
2013-02-06 10:20:00,45.9,41.9,29.75,SSE,158,2.2,7.2,86,0.00,,,0.02,WUHU216HW,2013-02-06 18:20:00,
2013-02-06 10:25:00,45.9,41.9,29.75,ESE,113,3.4,7.2,86,0.00,,,0.02,WUHU216HW,2013-02-06 18:25:00,
2013-02-06 10:30:00,45.9,41.9,29.75,ESE,118,3.6,5.4,86,0.00,,,0.02,WUHU216HW,2013-02-06 18:30:00,
2013-02-06 10:35:00,45.9,41.7,29.75,SE,140,2.5,5.4,85,0.00,,,0.02,WUHU216HW,2013-02-06 18:35:00,
2013-02-06 10:41:00,45.9,41.9,29.76,SE,135,1.8,4.5,86,0.00,,,0.02,WUHU216HW,2013-02-06 18:41:00,
2013-02-06 10:46:00,46.1,41.9,29.76,ESE,113,1.8,3.6,85,0.00,,,0.02,WUHU216HW,2013-02-06 18:46:00,
2013-02-06 10:51:00,46.1,41.9,29.75,East,90,1.8,4.9,85,0.00,,,0.02,WUHU216HW,2013-02-06 18:51:00,
2013-02-06 10:56:00,46.1,41.9,29.75,ESE,121,0.9,4.9,85,0.00,,,0.02,WUHU216HW,2013-02-06 18:56:00,
2013-02-06 11:01:00,46.3,42.0,29.75,SE,125,1.4,4.7,85,0.00,,,0.02,WUHU216HW,2013-02-06 19:01:00,
2013-02-06 11:06:00,46.4,42.2,29.75,ESE,113,3.3,4.9,85,0.00,,,0.02,WUHU216HW,2013-02-06 19:06:00,
2013-02-06 11:11:00,46.8,42.6,29.75,ESE,113,5.8,5.8,85,0.00,,,0.02,WUHU216HW,2013-02-06 19:11:00,
2013-02-06 11:17:00,47.2,42.9,29.75,SSE,150,1.3,5.8,85,0.00,,,0.02,WUHU216HW,2013-02-06 19:17:00,
2013-02-06 11:22:00,47.3,42.5,29.75,ESE,110,5.7,6.3,83,0.00,,,0.02,WUHU216HW,2013-02-06 19:22:00,
2013-02-06 11:27:00,47.3,42.5,29.75,ESE,117,4.1,6.3,83,0.00,,,0.02,WUHU216HW,2013-02-06 19:27:00,
2013-02-06 11:32:00,47.5,42.3,29.74,ESE,120,5.2,6.9,82,0.00,,,0.02,WUHU216HW,2013-02-06 19:32:00,
2013-02-06 11:37:00,47.5,42.3,29.74,ESE,118,2.2,6.9,82,0.00,,,0.02,WUHU216HW,2013-02-06 19:37:00,
2013-02-06 11:42:00,47.7,42.5,29.74,ESE,113,3.4,6.5,82,0.00,,,0.02,WUHU216HW,2013-02-06 19:42:00,
2013-02-06 11:47:00,47.9,42.7,29.74,SE,133,1.0,6.5,82,0.00,,,0.02,WUHU216HW,2013-02-06 19:47:00,
2013-02-06 11:52:00,47.9,42.3,29.74,East,90,7.4,7.4,81,0.00,,,0.02,WUHU216HW,2013-02-06 19:52:00,
2013-02-06 11:57:00,48.1,42.5,29.73,ESE,113,3.8,7.4,81,0.00,,,0.02,WUHU216HW,2013-02-06 19:57:00,
2013-02-06 12:03:00,48.1,42.5,29.73,ESE,113,2.3,6.0,81,0.00,,,0.02,WUHU216HW,2013-02-06 20:03:00,
2013-02-06 12:08:00,48.2,42.7,29.73,ESE,113,5.4,6.0,81,0.00,,,0.02,WUHU216HW,2013-02-06 20:08:00,
2013-02-06 12:13:00,48.2,42.7,29.73,ESE,120,3.4,5.4,81,0.00,,,0.02,WUHU216HW,2013-02-06 20:13:00,
2013-02-06 12:18:00,48.2,42.7,29.73,East,90,2.5,5.4,81,0.00,,,0.02,WUHU216HW,2013-02-06 20:18:00,
2013-02-06 12:23:00,48.4,43.1,29.72,ESE,113,6.0,6.0,82,0.00,,,0.02,WUHU216HW,2013-02-06 20:23:00,
2013-02-06 12:28:00,48.2,42.7,29.72,SE,135,1.8,6.0,81,0.00,,,0.02,WUHU216HW,2013-02-06 20:28:00,
2013-02-06 12:33:00,48.4,42.9,29.72,East,90,9.8,9.8,81,0.00,,,0.02,WUHU216HW,2013-02-06 20:33:00,
2013-02-06 12:38:00,48.2,42.3,29.72,SE,126,4.6,9.8,80,0.00,,,0.02,WUHU216HW,2013-02-06 20:38:00,
2013-02-06 12:43:00,48.2,42.3,29.72,ESE,107,4.4,9.4,80,0.00,,,0.02,WUHU216HW,2013-02-06 20:43:00,
2013-02-06 12:48:00,48.2,42.3,29.72,ESE,113,3.3,9.4,80,0.00,,,0.02,WUHU216HW,2013-02-06 20:48:00,
2013-02-06 12:53:00,48.2,42.3,29.72,SE,135,1.3,4.7,80,0.00,,,0.02,WUHU216HW,2013-02-06 20:53:00,
2013-02-06 12:58:00,48.4,42.1,29.72,South,170,4.5,4.7,79,0.00,,,0.02,WUHU216HW,2013-02-06 20:58:00,
2013-02-06 13:03:00,48.4,42.1,29.71,ESE,104,3.6,4.9,79,0.00,,,0.02,WUHU216HW,2013-02-06 21:03:00,
2013-02-06 13:08:00,48.6,42.3,29.71,NNW,338,2.5,4.9,79,0.00,,,0.02,WUHU216HW,2013-02-06 21:08:00,
2013-02-06 13:14:00,48.6,42.3,29.71,ESE,103,3.3,4.3,79,0.00,,,0.02,WUHU216HW,2013-02-06 21:14:00,
2013-02-06 13:19:00,48.6,42.3,29.71,SE,135,3.1,8.9,79,0.00,,,0.02,WUHU216HW,2013-02-06 21:19:00,
2013-02-06 13:24:00,48.6,41.9,29.70,ESE,113,4.7,8.9,78,0.00,,,0.02,WUHU216HW,2013-02-06 21:24:00,
2013-02-06 13:29:00,48.8,42.1,29.70,SSW,203,2.0,4.7,78,0.00,,,0.02,WUHU216HW,2013-02-06 21:29:00,
2013-02-06 13:34:00,49.0,42.0,29.70,SE,135,7.6,7.6,77,0.00,,,0.02,WUHU216HW,2013-02-06 21:34:00,
2013-02-06 13:39:00,48.8,41.9,29.70,ESE,106,4.7,7.6,77,0.00,,,0.02,WUHU216HW,2013-02-06 21:39:00,
2013-02-06 13:44:00,48.6,41.3,29.70,ESE,113,7.6,7.6,76,0.00,,,0.02,WUHU216HW,2013-02-06 21:44:00,
2013-02-06 13:49:00,48.6,41.7,29.70,SE,135,3.4,7.6,77,0.00,,,0.02,WUHU216HW,2013-02-06 21:49:00,
2013-02-06 13:55:00,48.6,41.3,29.70,ESE,113,6.0,6.0,76,0.00,,,0.02,WUHU216HW,2013-02-06 21:55:00,
2013-02-06 14:00:00,48.2,40.6,29.70,ESE,105,5.7,8.1,75,0.00,,,0.02,WUHU216HW,2013-02-06 22:00:00,
2013-02-06 14:05:00,48.2,41.0,29.69,ESE,113,3.4,8.1,76,0.00,,,0.02,WUHU216HW,2013-02-06 22:05:00,
2013-02-06 14:10:00,48.2,40.6,29.69,South,171,6.4,8.1,75,0.00,,,0.02,WUHU216HW,2013-02-06 22:10:00,
2013-02-06 14:15:00,48.1,40.8,29.69,ESE,113,5.4,8.1,76,0.00,,,0.02,WUHU216HW,2013-02-06 22:15:00,
2013-02-06 14:20:00,47.9,40.6,29.69,SE,135,1.8,5.4,76,0.00,,,0.02,WUHU216HW,2013-02-06 22:20:00,
2013-02-06 14:25:00,47.9,41.0,29.69,East,90,5.6,5.6,77,0.00,,,0.02,WUHU216HW,2013-02-06 22:25:00,
2013-02-06 14:30:00,47.9,41.0,29.69,ESE,103,1.5,5.6,77,0.00,,,0.02,WUHU216HW,2013-02-06 22:30:00,
2013-02-06 14:35:00,47.9,41.0,29.69,East,90,3.4,4.7,77,0.00,,,0.02,WUHU216HW,2013-02-06 22:35:00,
2013-02-06 14:40:00,47.7,41.1,29.69,SSE,158,4.3,4.3,78,0.00,,,0.02,WUHU216HW,2013-02-06 22:40:00,
2013-02-06 14:45:00,47.5,41.0,29.69,ESE,113,6.3,7.2,78,0.00,,,0.02,WUHU216HW,2013-02-06 22:45:00,
2013-02-06 14:51:00,47.3,40.8,29.69,ESE,113,3.4,7.2,78,0.01,,,0.02,WUHU216HW,2013-02-06 22:51:00,
2013-02-06 14:56:00,47.2,41.0,29.69,East,90,8.7,8.7,79,0.01,,,0.02,WUHU216HW,2013-02-06 22:56:00,
2013-02-06 15:01:00,46.8,40.7,29.69,ESE,113,3.4,8.7,79,0.01,,,0.02,WUHU216HW,2013-02-06 23:01:00,
2013-02-06 15:07:00,46.6,40.9,29.69,ESE,113,3.8,8.9,80,0.02,,,0.04,WUHU216HW,2013-02-06 23:07:00,
2013-02-06 15:12:00,46.4,41.0,29.69,East,90,4.0,8.9,81,0.02,,,0.04,WUHU216HW,2013-02-06 23:12:00,
2013-02-06 15:17:00,46.3,40.8,29.69,SE,124,1.9,6.3,81,0.02,,,0.04,WUHU216HW,2013-02-06 23:17:00,
2013-02-06 15:22:00,46.1,40.6,29.69,East,90,2.0,2.0,81,0.02,,,0.04,WUHU216HW,2013-02-06 23:22:00,
2013-02-06 15:27:00,46.1,40.6,29.69,ESE,113,0.4,4.0,81,0.02,,,0.04,WUHU216HW,2013-02-06 23:27:00,
2013-02-06 15:33:00,46.1,41.0,29.69,NE,45,0.4,4.0,82,0.02,,,0.04,WUHU216HW,2013-02-06 23:33:00,
2013-02-06 15:38:00,45.9,40.8,29.69,ESE,113,0.2,1.6,82,0.03,,,0.04,WUHU216HW,2013-02-06 23:38:00,
2013-02-06 15:43:00,45.9,41.0,29.69,East,90,1.1,1.1,83,0.03,,,0.04,WUHU216HW,2013-02-06 23:43:00,
2013-02-06 15:48:00,45.7,40.9,29.69,NNW,338,0.4,1.1,83,0.02,,,0.04,WUHU216HW,2013-02-06 23:48:00,
2013-02-06 15:53:00,45.7,40.9,29.68,East,90,0.2,0.9,83,0.03,,,0.06,WUHU216HW,2013-02-06 23:53:00,
2013-02-06 15:58:00,45.5,40.7,29.68,ENE,68,1.1,1.1,83,0.03,,,0.06,WUHU216HW,2013-02-06 23:58:00,
2013-02-06 16:03:00,45.4,40.9,29.68,ENE,68,0.4,2.0,84,0.02,,,0.06,WUHU216HW,2013-02-07 00:03:00,
2013-02-06 16:08:00,45.4,40.9,29.68,ESE,113,0.0,2.0,84,0.02,,,0.06,WUHU216HW,2013-02-07 00:08:00,
2013-02-06 16:13:00,45.2,41.0,29.68,NNE,23,0.0,1.8,85,0.02,,,0.06,WUHU216HW,2013-02-07 00:13:00,
2013-02-06 16:18:00,45.2,41.0,29.68,NNE,23,0.0,0.4,85,0.02,,,0.06,WUHU216HW,2013-02-07 00:18:00,
2013-02-06 16:23:00,45.0,40.8,29.68,NNE,23,0.0,0.4,85,0.02,,,0.06,WUHU216HW,2013-02-07 00:23:00,
2013-02-06 16:28:00,45.0,40.8,29.67,ENE,68,0.4,0.9,85,0.02,,,0.06,WUHU216HW,2013-02-07 00:28:00,
2013-02-06 16:33:00,45.0,40.8,29.67,ESE,113,0.4,0.9,85,0.01,,,0.06,WUHU216HW,2013-02-07 00:33:00,
2013-02-06 16:38:00,45.0,40.8,29.67,North,0,0.2,0.9,85,0.01,,,0.06,WUHU216HW,2013-02-07 00:38:00,
2013-02-06 16:43:00,44.8,40.9,29.67,ESE,113,1.1,1.1,86,0.01,,,0.06,WUHU216HW,2013-02-07 00:43:00,
2013-02-06 16:48:00,44.8,40.9,29.67,ENE,68,0.0,1.1,86,0.00,,,0.06,WUHU216HW,2013-02-07 00:48:00,
2013-02-06 16:53:00,44.6,40.7,29.67,ESE,113,0.4,0.4,86,0.00,,,0.06,WUHU216HW,2013-02-07 00:53:00,
2013-02-06 16:58:00,44.6,40.7,29.67,West,270,0.9,1.1,86,0.00,,,0.06,WUHU216HW,2013-02-07 00:58:00,
2013-02-06 17:03:00,44.5,40.9,29.67,ESE,113,0.7,1.1,87,0.01,,,0.07,WUHU216HW,2013-02-07 01:03:00,
2013-02-06 17:09:00,44.5,40.9,29.67,ENE,57,1.3,2.2,87,0.01,,,0.07,WUHU216HW,2013-02-07 01:09:00,
2013-02-06 17:14:00,44.3,40.7,29.67,SE,135,0.0,2.2,87,0.01,,,0.07,WUHU216HW,2013-02-07 01:14:00,
2013-02-06 17:19:00,44.3,40.7,29.67,East,90,2.0,2.0,87,0.01,,,0.07,WUHU216HW,2013-02-07 01:19:00,
2013-02-06 17:24:00,44.3,40.7,29.67,ESE,113,1.8,2.2,87,0.01,,,0.07,WUHU216HW,2013-02-07 01:24:00,
2013-02-06 17:29:00,44.3,40.7,29.66,NNW,338,1.1,2.9,87,0.01,,,0.07,WUHU216HW,2013-02-07 01:29:00,
2013-02-06 17:34:00,44.3,40.7,29.66,NE,41,1.4,3.4,87,0.01,,,0.07,WUHU216HW,2013-02-07 01:34:00,
2013-02-06 17:39:00,44.3,40.7,29.66,ESE,113,1.3,3.4,87,0.01,,,0.07,WUHU216HW,2013-02-07 01:39:00,
2013-02-06 17:44:00,44.3,40.7,29.66,ESE,110,2.3,2.5,87,0.01,,,0.07,WUHU216HW,2013-02-07 01:44:00,
2013-02-06 17:50:00,44.3,40.7,29.66,East,94,1.1,2.5,87,0.01,,,0.07,WUHU216HW,2013-02-07 01:50:00,
2013-02-06 17:55:00,44.3,40.7,29.66,NNE,23,0.0,1.8,87,0.01,,,0.07,WUHU216HW,2013-02-07 01:55:00,
2013-02-06 18:00:00,44.3,40.7,29.66,ESE,113,3.1,3.1,87,0.00,,,0.07,WUHU216HW,2013-02-07 02:00:00,
2013-02-06 18:05:00,44.1,40.5,29.65,NNE,23,0.4,3.1,87,0.01,,,0.07,WUHU216HW,2013-02-07 02:05:00,
2013-02-06 18:10:00,44.1,40.5,29.65,East,90,0.6,0.9,87,0.01,,,0.07,WUHU216HW,2013-02-07 02:10:00,
2013-02-06 18:16:00,44.1,40.5,29.65,NNE,23,0.7,2.0,87,0.01,,,0.07,WUHU216HW,2013-02-07 02:16:00,
2013-02-06 18:21:00,43.9,40.3,29.65,ENE,68,0.4,2.0,87,0.01,,,0.07,WUHU216HW,2013-02-07 02:21:00,
2013-02-06 18:26:00,43.7,40.4,29.65,NNW,338,0.7,0.9,88,0.02,,,0.09,WUHU216HW,2013-02-07 02:26:00,
2013-02-06 18:31:00,43.7,40.4,29.64,NE,38,0.3,1.3,88,0.02,,,0.09,WUHU216HW,2013-02-07 02:31:00,
2013-02-06 18:36:00,43.7,40.4,29.64,ENE,71,1.1,1.3,88,0.02,,,0.09,WUHU216HW,2013-02-07 02:36:00,
2013-02-06 18:41:00,43.6,40.2,29.64,East,90,1.1,1.3,88,0.02,,,0.09,WUHU216HW,2013-02-07 02:41:00,
2013-02-06 18:47:00,43.6,40.2,29.63,NNE,15,0.3,2.2,88,0.03,,,0.09,WUHU216HW,2013-02-07 02:47:00,
2013-02-06 18:52:00,43.6,40.2,29.63,NW,315,1.3,2.2,88,0.03,,,0.09,WUHU216HW,2013-02-07 02:52:00,
2013-02-06 18:57:00,43.6,40.6,29.63,WNW,291,1.1,1.6,89,0.03,,,0.09,WUHU216HW,2013-02-07 02:57:00,
2013-02-06 19:02:00,43.4,40.4,29.63,West,270,0.7,1.6,89,0.02,,,0.09,WUHU216HW,2013-02-07 03:02:00,
2013-02-06 19:08:00,43.4,40.1,29.62,SE,138,0.8,1.1,88,0.02,,,0.09,WUHU216HW,2013-02-07 03:08:00,
2013-02-06 19:13:00,43.4,40.1,29.63,East,90,0.7,1.1,88,0.03,,,0.11,WUHU216HW,2013-02-07 03:13:00,
2013-02-06 19:18:00,43.2,39.9,29.62,East,90,1.1,1.1,88,0.03,,,0.11,WUHU216HW,2013-02-07 03:18:00,
2013-02-06 19:23:00,43.2,39.9,29.62,NNE,15,0.3,1.1,88,0.02,,,0.11,WUHU216HW,2013-02-07 03:23:00,
2013-02-06 19:28:00,43.2,40.2,29.62,North,4,1.2,2.2,89,0.02,,,0.11,WUHU216HW,2013-02-07 03:28:00,
2013-02-06 19:34:00,43.2,39.9,29.62,NE,45,0.2,2.2,88,0.02,,,0.11,WUHU216HW,2013-02-07 03:34:00,
2013-02-06 19:39:00,43.2,39.9,29.61,NNW,330,0.3,0.4,88,0.03,,,0.11,WUHU216HW,2013-02-07 03:39:00,
2013-02-06 19:44:00,43.2,40.2,29.61,NE,45,0.2,0.4,89,0.02,,,0.11,WUHU216HW,2013-02-07 03:44:00,
2013-02-06 19:49:00,43.2,40.2,29.61,NNW,338,0.4,0.7,89,0.02,,,0.11,WUHU216HW,2013-02-07 03:49:00,
2013-02-06 19:54:00,43.0,40.1,29.61,NNW,338,1.1,1.1,89,0.02,,,0.11,WUHU216HW,2013-02-07 03:54:00,
2013-02-06 19:59:00,43.0,40.1,29.61,NW,315,0.4,1.6,89,0.02,,,0.11,WUHU216HW,2013-02-07 03:59:00,
2013-02-06 20:04:00,43.0,40.1,29.61,NNE,23,1.3,1.6,89,0.02,,,0.11,WUHU216HW,2013-02-07 04:04:00,
2013-02-06 20:09:00,43.0,40.1,29.60,East,100,1.1,1.8,89,0.01,,,0.11,WUHU216HW,2013-02-07 04:09:00,
2013-02-06 20:15:00,42.8,39.9,29.60,WNW,285,1.7,2.2,89,0.01,,,0.11,WUHU216HW,2013-02-07 04:15:00,
2013-02-06 20:20:00,42.8,39.9,29.59,NNE,23,1.1,2.2,89,0.01,,,0.11,WUHU216HW,2013-02-07 04:20:00,
2013-02-06 20:25:00,42.8,39.9,29.60,NNW,345,1.3,2.5,89,0.01,,,0.11,WUHU216HW,2013-02-07 04:25:00,
2013-02-06 20:30:00,42.8,39.9,29.60,NNW,338,1.1,1.8,89,0.01,,,0.11,WUHU216HW,2013-02-07 04:30:00,
2013-02-06 20:35:00,42.8,39.9,29.59,North,0,0.4,1.8,89,0.00,,,0.11,WUHU216HW,2013-02-07 04:35:00,
2013-02-06 20:40:00,42.8,39.9,29.59,SE,128,0.9,1.8,89,0.00,,,0.11,WUHU216HW,2013-02-07 04:40:00,
2013-02-06 20:46:00,42.8,39.9,29.59,ENE,76,0.7,1.6,89,0.00,,,0.11,WUHU216HW,2013-02-07 04:46:00,
2013-02-06 20:51:00,42.8,39.9,29.59,NE,45,1.6,1.6,89,0.00,,,0.11,WUHU216HW,2013-02-07 04:51:00,
2013-02-06 20:56:00,42.8,39.9,29.59,NW,324,0.7,1.6,89,0.00,,,0.11,WUHU216HW,2013-02-07 04:56:00,
2013-02-06 21:00:00,42.8,39.9,29.58,ENE,68,2.0,2.0,89,0.00,,,0.11,WUHU216HW,2013-02-07 05:00:00,
2013-02-06 21:01:00,42.8,39.9,29.58,ENE,68,2.0,2.0,89,0.00,,,0.11,WUHU216HW,2013-02-07 05:01:00,
2013-02-06 21:06:00,42.8,39.9,29.58,ENE,65,0.8,2.0,89,0.00,,,0.11,WUHU216HW,2013-02-07 05:06:00,
2013-02-06 21:11:00,42.8,39.9,29.57,ESE,102,2.3,3.4,89,0.00,,,0.11,WUHU216HW,2013-02-07 05:11:00,
2013-02-06 21:16:00,42.8,39.9,29.57,SE,135,2.0,3.4,89,0.00,,,0.11,WUHU216HW,2013-02-07 05:16:00,
2013-02-06 21:22:00,42.8,39.9,29.56,NNE,13,1.8,2.5,89,0.00,,,0.11,WUHU216HW,2013-02-07 05:22:00,
2013-02-06 21:27:00,42.8,39.9,29.56,NW,315,1.3,2.5,89,0.00,,,0.11,WUHU216HW,2013-02-07 05:27:00,
2013-02-06 21:32:00,42.8,39.5,29.56,NW,315,1.1,2.7,88,0.00,,,0.11,WUHU216HW,2013-02-07 05:32:00,
2013-02-06 21:37:00,42.8,39.5,29.56,North,0,1.6,2.7,88,0.00,,,0.11,WUHU216HW,2013-02-07 05:37:00,
2013-02-06 21:42:00,42.8,39.5,29.55,North,0,1.1,1.6,88,0.00,,,0.11,WUHU216HW,2013-02-07 05:42:00,
2013-02-06 21:47:00,42.8,39.5,29.55,ENE,68,1.1,4.0,88,0.00,,,0.11,WUHU216HW,2013-02-07 05:47:00,
2013-02-06 21:52:00,42.8,39.5,29.55,East,90,2.9,4.9,88,0.00,,,0.11,WUHU216HW,2013-02-07 05:52:00,
2013-02-06 21:57:00,42.8,39.5,29.55,NNW,338,2.2,4.9,88,0.00,,,0.11,WUHU216HW,2013-02-07 05:57:00,
2013-02-06 22:02:00,42.8,39.5,29.54,SW,220,2.3,2.5,88,0.00,,,0.11,WUHU216HW,2013-02-07 06:02:00,
2013-02-06 22:08:00,42.8,39.5,29.54,NNE,23,2.0,2.9,88,0.00,,,0.11,WUHU216HW,2013-02-07 06:08:00,
2013-02-06 22:13:00,42.7,39.3,29.54,East,90,0.2,2.9,88,0.00,,,0.11,WUHU216HW,2013-02-07 06:13:00,
2013-02-06 22:18:00,42.8,39.5,29.54,East,90,1.3,1.8,88,0.00,,,0.11,WUHU216HW,2013-02-07 06:18:00,
2013-02-06 22:23:00,42.8,39.5,29.54,ESE,113,3.4,3.4,88,0.00,,,0.11,WUHU216HW,2013-02-07 06:23:00,
2013-02-06 22:28:00,42.8,39.5,29.54,North,11,1.2,3.4,88,0.00,,,0.11,WUHU216HW,2013-02-07 06:28:00,
2013-02-06 22:33:00,42.8,39.5,29.54,West,270,0.9,3.4,88,0.00,,,0.11,WUHU216HW,2013-02-07 06:33:00,
2013-02-06 22:38:00,42.7,39.3,29.54,NNE,23,0.4,3.4,88,0.00,,,0.11,WUHU216HW,2013-02-07 06:38:00,
2013-02-06 22:43:00,42.8,39.5,29.54,North,6,0.8,4.0,88,0.00,,,0.11,WUHU216HW,2013-02-07 06:43:00,
2013-02-06 22:48:00,42.8,39.5,29.54,NE,47,1.5,4.0,88,0.00,,,0.11,WUHU216HW,2013-02-07 06:48:00,
2013-02-06 22:54:00,42.8,39.5,29.55,NW,321,1.0,3.6,88,0.00,,,0.11,WUHU216HW,2013-02-07 06:54:00,
2013-02-06 22:59:00,42.8,39.5,29.54,NW,315,1.1,2.5,88,0.00,,,0.11,WUHU216HW,2013-02-07 06:59:00,
2013-02-06 23:04:00,42.8,39.5,29.53,NW,315,0.7,2.5,88,0.00,,,0.11,WUHU216HW,2013-02-07 07:04:00,
2013-02-06 23:09:00,43.0,39.7,29.53,ESE,113,1.1,1.1,88,0.00,,,0.11,WUHU216HW,2013-02-07 07:09:00,
2013-02-06 23:14:00,43.0,39.4,29.53,East,90,7.8,7.8,87,0.00,,,0.11,WUHU216HW,2013-02-07 07:14:00,
2013-02-06 23:19:00,43.0,39.4,29.52,NNW,330,1.7,7.8,87,0.00,,,0.11,WUHU216HW,2013-02-07 07:19:00,
2013-02-06 23:24:00,43.2,39.6,29.52,NNE,18,0.9,2.9,87,0.00,,,0.11,WUHU216HW,2013-02-07 07:24:00,
2013-02-06 23:30:00,43.0,39.4,29.52,ESE,113,0.4,2.9,87,0.00,,,0.11,WUHU216HW,2013-02-07 07:30:00,
2013-02-06 23:35:00,43.0,39.4,29.52,North,0,2.2,3.4,87,0.00,,,0.11,WUHU216HW,2013-02-07 07:35:00,
2013-02-06 23:40:00,43.0,39.4,29.52,North,0,2.7,2.7,87,0.00,,,0.11,WUHU216HW,2013-02-07 07:40:00,
2013-02-06 23:45:00,43.2,39.6,29.52,SE,135,1.8,2.7,87,0.00,,,0.11,WUHU216HW,2013-02-07 07:45:00,
2013-02-06 23:50:00,43.0,39.4,29.52,SE,126,0.7,2.2,87,0.00,,,0.11,WUHU216HW,2013-02-07 07:50:00,
2013-02-06 23:55:00,43.0,39.4,29.52,ENE,64,1.1,2.2,87,0.00,,,0.11,WUHU216HW,2013-02-07 07:55:00,